Wind_Speed
58 58 57 59 59 57 60 63 63 65 62 53 45 46 52 57 64 69 70 72 76 78 75 70 71 78 81 81 81 78 74 72 66 59 54 51 49 46 44 42 42 43 44 47 49 51 53 55 56 57 58 59 59 59 58 57 56 56 55 56 57 57 59 60 62 68 73 73 73 79 85 87 83 79 76 73 69 66 63 63 63 61 60 59 58
59 58 57 60 58 55 61 65 65 67 61 50 45 47 53 59 64 70 72 75 78 79 79 77 76 80 84 85 84 82 76 71 65 58 54 52 49 46 44 42 42 43 44 46 48 50 52 55 56 57 58 59 61 61 60 59 58 58 58 57 57 58 60 61 62 66 72 75 74 76 82 86 87 84 81 78 74 69 65 63 64 63 61 61 59
62 60 60 60 55 56 64 67 68 67 58 48 45 49 57 61 64 70 75 77 78 79 80 78 75 79 85 87 87 85 79 72 64 58 56 54 50 47 45 43 42 43 44 46 48 50 51 53 55 57 57 58 60 61 60 60 60 60 60 59 58 59 60 62 63 66 71 74 75 76 78 83 88 89 85 82 78 73 69 66 66 65 63 62 60
64 62 59 54 52 59 68 69 69 64 52 46 47 52 61 64 64 70 77 79 79 79 79 77 75 78 83 88 90 89 83 76 67 61 60 58 54 51 49 47 45 44 45 46 47 49 51 53 54 55 56 57 59 60 60 60 61 61 61 60 59 59 60 62 63 65 69 73 75 76 77 79 85 90 88 84 83 78 73 70 68 67 66 64 62
66 61 54 51 56 65 70 70 65 56 47 46 49 56 65 66 66 71 78 82 81 80 83 83 80 80 82 89 93 91 87 80 71 66 63 60 57 55 54 52 49 47 46 47 47 48 50 53 54 55 56 57 58 60 60 61 61 61 61 61 60 59 60 61 62 64 68 72 74 75 77 78 81 88 89 87 85 83 78 74 71 69 67 66 64
66 59 53 57 63 67 68 64 55 47 45 48 53 62 68 67 68 73 79 84 85 84 87 89 85 80 82 90 94 92 89 82 74 68 64 59 56 55 55 53 51 49 48 48 49 50 52 55 58 59 59 60 60 61 61 60 60 61 60 60 59 59 59 59 61 63 66 70 73 74 75 77 79 85 89 89 88 86 82 78 75 71 68 66 66
65 60 59 64 66 65 66 61 50 45 48 52 58 66 69 69 73 77 81 86 88 87 90 92 88 81 83 91 96 95 91 83 74 68 62 56 55 55 54 53 52 51 51 51 52 53 55 58 60 61 61 61 61 62 62 60 59 59 59 58 58 58 57 58 59 62 64 68 72 74 74 75 77 82 87 89 89 88 86 82 78 74 71 67 67
66 63 63 64 62 65 67 59 50 48 51 56 62 67 70 72 76 81 84 87 89 89 91 95 91 83 84 92 97 97 93 84 75 67 59 55 55 56 55 54 54 54 54 56 56 57 57 59 61 61 60 60 61 61 60 59 58 58 57 56 56 56 56 56 58 61 63 66 70 73 74 74 76 80 85 88 90 91 89 86 82 78 74 70 68
64 61 60 59 60 66 67 58 51 51 55 61 67 71 74 76 82 87 89 89 90 91 93 97 94 86 86 92 98 99 94 85 76 65 57 55 58 59 58 57 56 56 57 59 60 60 60 61 62 61 60 60 60 59 58 57 57 57 56 54 53 53 54 55 56 59 63 65 69 73 75 75 75 78 83 86 89 92 92 89 86 81 77 73 69
59 58 57 59 63 66 63 54 50 53 60 67 73 78 81 85 90 93 91 90 91 92 95 98 95 88 87 93 99 99 93 84 74 62 56 58 61 61 61 59 57 58 58 60 63 63 63 64 63 62 61 60 59 58 56 55 54 53 53 52 50 49 51 54 55 58 62 65 69 73 75 75 75 77 81 85 88 92 93 92 88 84 79 75 72
55 56 60 64 64 57 51 50 53 59 66 72 78 83 87 89 91 90 88 90 92 94 97 99 96 90 89 94 100 99 91 81 71 63 61 65 66 65 63 61 60 60 61 62 63 63 62 62 62 62 62 60 58 56 54 53 52 51 50 50 49 47 49 52 55 57 61 64 69 73 75 76 75 75 79 84 88 91 93 93 91 87 81 77 74
57 58 60 58 54 51 53 59 64 68 71 75 81 85 86 86 86 86 87 89 91 95 99 100 97 92 91 96 101 99 91 81 73 69 69 70 69 67 66 64 63 64 65 64 63 61 59 60 59 59 59 58 56 53 51 49 49 48 47 47 47 47 47 50 53 56 59 64 68 72 75 76 75 75 77 82 86 89 92 93 93 89 82 78 76
56 55 51 47 49 56 62 67 70 74 75 78 83 86 85 84 85 86 88 90 92 98 101 101 97 93 92 98 101 98 92 83 76 74 73 72 71 70 69 68 68 68 68 67 64 61 60 60 58 57 56 54 51 49 46 45 46 46 45 44 44 45 46 48 51 54 58 63 67 72 75 76 76 76 76 79 84 88 91 92 93 90 84 80 79
54 48 45 50 56 59 64 69 74 77 79 82 87 88 85 85 86 89 90 91 94 100 103 101 98 94 95 100 102 98 92 85 79 77 75 74 74 74 74 74 73 73 71 69 67 65 64 62 59 56 53 50 47 44 42 42 43 43 42 41 41 43 45 46 49 53 57 61 66 71 74 76 77 77 75 77 82 87 90 92 93 92 87 84 82
47 42 47 57 62 64 69 73 76 79 82 87 89 88 86 87 90 92 92 92 96 103 105 102 99 96 98 103 103 99 93 86 81 78 77 76 77 77 78 78 78 77 75 73 70 68 65 63 59 56 52 47 43 40 40 40 40 40 39 39 39 41 43 45 47 51 55 59 64 69 74 76 78 77 75 75 80 86 90 92 93 92 90 87 84
41 44 49 55 61 66 69 72 77 83 87 88 88 86 86 89 93 95 93 94 100 105 106 103 99 99 102 105 104 99 93 87 82 80 79 79 80 80 80 80 79 78 76 73 70 67 64 62 59 55 51 46 40 36 37 38 37 36 36 35 36 38 40 43 45 48 53 57 62 67 72 75 77 76 74 73 78 85 89 91 91 91 91 89 84
47 50 52 56 62 67 70 75 83 86 87 88 88 87 88 91 95 95 94 97 103 107 106 103 101 102 105 106 103 98 92 86 82 81 81 82 82 82 81 81 80 77 74 71 68 65 62 59 56 53 50 44 38 33 34 35 34 33 33 32 33 34 36 39 42 45 49 54 59 65 70 73 74 75 72 72 77 84 87 90 91 91 91 90 85
58 62 66 71 74 76 80 84 86 85 87 89 89 88 91 95 95 95 96 102 107 108 106 104 103 105 107 106 102 96 90 86 83 82 83 84 84 83 81 80 78 75 71 68 65 62 59 55 53 50 47 42 35 31 32 32 31 29 29 29 30 31 32 34 36 40 45 51 56 61 66 69 71 72 71 72 77 82 86 90 92 92 92 90 87
61 68 75 79 82 83 85 85 83 84 88 88 88 90 94 96 95 95 100 106 109 108 106 106 106 107 108 106 102 96 90 86 84 84 84 83 82 81 79 76 73 71 69 66 63 60 55 52 50 47 44 39 33 29 29 30 28 26 25 25 26 27 28 29 32 36 41 45 50 55 60 64 67 69 70 72 76 81 85 91 93 93 92 91 89
61 66 71 74 77 80 82 82 83 87 88 87 89 94 96 95 95 98 104 109 109 107 106 107 108 109 109 106 102 96 91 88 86 85 84 82 81 79 76 72 69 68 67 64 62 57 52 49 47 44 41 37 30 26 26 27 25 23 22 21 22 23 25 27 29 32 36 40 44 49 54 59 63 66 68 72 76 80 86 91 93 93 93 92 90
70 71 73 74 77 82 84 86 89 88 85 86 92 96 95 95 97 102 107 108 107 106 106 108 109 109 108 104 100 95 92 91 89 86 84 83 81 78 74 70 67 66 65 62 59 55 50 46 44 41 38 34 28 24 24 24 23 21 19 18 19 20 22 24 25 27 31 36 39 44 48 53 58 62 66 70 75 81 87 91 92 93 94 94 91
73 76 79 82 87 89 89 90 90 86 85 91 97 95 94 97 101 105 108 107 106 106 107 109 109 107 104 100 96 93 92 91 90 88 87 86 83 79 74 70 66 64 62 59 56 52 47 44 41 38 35 31 26 22 23 24 22 20 17 16 16 18 19 20 21 22 26 30 34 39 43 48 53 59 64 69 75 82 87 90 92 93 94 95 93
79 84 88 91 92 91 90 91 89 87 90 97 97 94 96 101 104 106 107 107 107 108 109 110 108 104 100 96 93 91 91 92 93 92 91 88 84 79 74 69 65 62 59 57 53 49 45 42 38 34 32 29 24 21 23 24 22 19 16 15 15 15 16 16 16 18 21 25 29 33 38 43 49 54 61 68 75 81 87 90 91 92 94 96 94
87 90 91 91 91 91 91 91 89 91 96 98 97 97 100 103 105 106 105 105 107 109 110 109 104 99 95 93 91 91 92 95 96 95 93 88 82 78 73 68 63 58 55 53 50 47 43 40 35 31 30 27 22 21 25 24 21 18 16 14 13 12 12 12 12 14 16 20 24 28 33 39 44 51 58 65 73 80 86 88 90 91 94 95 95
88 87 86 86 88 89 89 89 91 95 99 99 98 100 103 105 107 106 104 104 106 108 107 104 99 95 93 92 91 92 95 98 98 96 91 86 81 77 72 65 59 55 52 49 47 44 41 38 33 29 28 26 22 23 27 25 21 18 15 12 12 11 10 9 9 11 13 15 19 24 29 34 41 47 54 62 70 78 84 86 88 90 92 94 94
84 81 79 80 82 84 87 91 96 99 99 99 100 103 105 107 107 105 104 105 106 105 102 99 95 93 92 92 93 96 99 99 97 93 87 83 79 75 69 62 56 52 49 46 44 42 39 36 31 28 27 25 22 25 29 26 22 18 14 12 12 11 8 7 8 9 10 12 16 21 26 31 37 43 50 58 67 75 82 85 87 89 92 93 94
82 79 78 80 83 87 92 97 99 99 99 101 103 106 107 106 105 104 105 105 104 101 98 95 92 91 91 94 98 100 101 99 94 89 85 81 78 72 65 58 54 50 46 43 41 39 36 33 29 27 26 25 23 28 31 28 24 19 16 14 13 10 8 6 7 7 8 9 13 18 24 29 35 40 47 56 65 73 79 83 85 86 89 91 92
83 82 82 84 88 93 96 98 99 100 102 104 106 107 105 104 103 103 104 103 101 98 94 91 90 91 94 99 102 102 99 96 91 87 84 80 75 69 62 56 52 48 44 40 38 36 34 31 27 26 25 24 25 31 32 29 25 21 18 16 13 10 8 8 6 6 6 7 11 17 22 28 34 39 46 54 63 70 76 80 83 85 86 88 90
83 82 84 88 93 95 97 98 99 101 104 106 106 104 101 100 101 101 101 99 95 92 90 91 94 98 101 103 103 100 97 94 90 87 83 78 72 66 60 54 50 46 42 38 36 34 32 29 26 24 24 24 27 33 34 31 27 23 21 18 15 12 11 10 8 6 5 6 11 16 22 28 34 40 46 51 57 65 73 78 81 83 85 86 88
81 85 89 93 95 96 96 97 99 102 104 103 100 98 97 97 98 97 95 91 88 88 91 96 101 104 105 104 101 99 96 93 88 85 80 75 69 64 58 52 47 43 40 37 34 32 30 27 25 24 24 24 30 36 36 32 29 27 23 20 17 15 14 13 10 8 5 7 11 16 21 27 33 40 47 50 51 58 69 77 79 81 83 84 86
90 94 96 95 95 95 96 99 102 103 100 95 92 93 94 94 93 91 89 88 89 92 97 102 106 107 105 104 102 99 95 90 86 81 76 70 65 61 56 50 45 41 38 36 33 31 28 26 24 24 24 26 33 39 39 35 32 30 26 22 19 17 17 15 13 10 7 8 12 17 23 27 32 38 47 53 52 54 63 72 77 80 82 82 83
96 97 97 96 96 97 99 100 100 96 91 89 90 92 93 92 91 90 90 92 94 98 103 107 109 108 106 104 101 96 92 87 81 76 70 65 62 58 54 48 42 38 37 34 32 30 28 25 24 25 25 28 36 42 41 38 35 32 28 24 21 19 19 18 15 12 10 9 13 19 24 27 31 36 45 54 57 57 60 67 72 77 79 80 81
97 98 98 98 99 98 98 96 92 88 89 91 93 93 92 91 91 92 94 97 99 102 107 110 111 109 106 101 97 93 89 83 76 70 65 61 57 54 51 45 39 36 35 33 31 29 27 25 25 26 26 30 39 45 44 41 38 35 31 27 23 22 22 20 17 15 13 11 14 20 25 28 30 34 41 51 58 60 60 63 67 71 74 76 78
98 99 99 98 96 95 93 90 89 91 94 96 95 93 91 90 92 94 97 100 103 106 110 113 112 108 102 97 94 90 84 77 70 65 60 56 52 50 48 44 38 34 33 32 30 28 27 25 25 27 27 32 41 47 46 44 41 37 33 29 25 24 25 23 20 18 16 14 16 21 26 28 30 33 38 45 54 60 61 62 64 67 69 70 70
100 99 97 94 92 90 90 89 91 95 96 96 95 93 92 93 96 99 102 104 106 108 111 113 110 104 99 95 91 85 78 71 66 61 56 52 49 47 45 43 38 33 31 31 30 28 27 26 27 28 29 34 44 49 49 47 44 40 37 32 28 27 28 27 24 21 19 17 18 23 27 29 31 34 37 40 48 56 61 62 63 65 67 67 66
96 94 92 90 89 90 91 92 94 96 96 94 94 95 96 98 102 103 103 104 107 110 112 110 105 100 96 92 86 79 72 67 62 58 54 49 46 44 43 41 37 33 31 30 29 28 27 27 28 29 30 36 45 51 52 50 47 43 40 36 31 30 31 31 28 26 23 21 21 25 29 30 32 35 39 41 45 52 59 62 64 65 66 67 66
90 89 89 88 89 90 91 93 95 96 96 96 98 100 101 103 104 103 104 106 109 110 109 105 101 97 93 87 80 74 69 64 59 55 51 47 43 42 41 40 37 34 31 30 29 28 28 28 29 31 32 37 46 53 54 53 50 47 44 40 35 34 34 34 32 30 28 25 24 27 31 33 34 35 38 40 44 49 55 61 63 64 65 65 64
91 90 89 89 89 89 90 93 95 96 98 101 103 103 102 103 104 105 107 109 109 107 104 101 98 93 87 80 74 70 66 61 56 52 48 45 41 39 39 38 37 35 32 31 30 29 29 29 31 33 33 37 47 55 57 56 54 51 48 44 40 37 37 37 36 34 33 30 28 29 33 36 37 37 37 38 42 46 51 56 60 63 64 64 63
90 88 87 88 89 90 92 94 96 98 101 103 103 101 102 104 107 109 110 109 106 102 100 97 93 87 80 74 70 66 62 57 51 48 46 43 40 38 37 37 36 36 34 32 31 30 30 30 32 35 36 38 46 55 59 59 57 55 52 48 44 41 40 40 39 38 37 36 33 33 34 37 39 40 39 38 41 45 49 51 55 59 63 65 66
86 87 89 90 92 94 95 97 98 100 103 103 102 102 105 108 109 109 107 105 102 99 96 92 86 80 73 69 66 62 58 52 47 44 42 41 39 37 37 36 36 37 36 34 32 31 31 31 32 36 38 40 46 55 62 62 61 59 56 52 49 46 44 43 42 41 41 41 39 38 37 39 41 42 42 41 43 46 49 51 50 52 57 62 65
90 91 93 94 94 94 96 98 100 103 105 105 105 107 109 109 107 105 103 100 98 94 90 85 79 73 68 65 62 57 53 49 45 42 40 39 38 37 36 37 37 37 37 36 34 32 32 32 33 36 40 42 46 54 63 66 65 63 61 57 54 51 49 47 46 45 45 45 44 43 42 42 42 43 44 45 45 47 50 54 54 53 54 58 62
92 92 92 93 95 97 100 103 106 107 107 107 108 108 107 105 103 101 99 96 92 88 83 77 72 68 65 62 57 52 48 46 44 41 40 40 38 37 37 38 37 37 37 37 37 35 33 33 34 37 40 43 46 53 62 68 68 67 65 62 58 56 54 52 50 49 48 48 48 48 47 46 45 46 46 47 48 49 51 54 57 58 59 60 62
95 95 97 100 102 104 106 107 107 107 106 106 106 105 103 101 98 96 93 89 84 78 73 70 68 65 62 57 51 48 47 46 43 41 41 41 40 38 38 39 39 38 38 38 38 38 36 35 34 36 41 44 47 51 59 68 71 71 69 67 64 60 59 57 55 53 52 52 51 51 51 51 50 50 50 50 51 52 53 55 57 60 62 63 64
102 103 104 105 106 107 107 107 107 106 105 103 102 100 98 96 93 90 86 81 75 69 65 64 64 62 58 52 47 45 46 46 45 43 42 42 41 40 40 40 40 39 40 40 39 39 39 38 36 36 39 44 48 50 56 65 72 74 73 72 69 66 63 62 60 57 56 56 55 55 55 55 55 55 54 54 54 54 55 57 60 62 63 64 65
106 106 106 106 106 106 106 105 104 103 101 99 97 95 93 90 86 82 78 72 67 63 61 59 58 57 55 51 47 45 45 46 45 44 42 42 42 41 41 40 39 39 39 40 40 40 40 40 38 37 38 42 47 51 54 61 70 76 77 76 74 72 69 66 65 63 61 60 60 59 58 58 59 59 59 59 58 57 56 57 61 65 67 67 67
106 106 106 105 104 103 102 101 100 98 96 93 91 89 86 82 78 74 70 66 63 60 56 53 51 52 53 51 48 46 45 45 43 42 41 40 40 39 39 38 38 37 36 36 37 38 39 39 38 38 37 40 45 50 54 58 65 74 79 80 78 77 74 72 70 68 66 64 64 64 63 62 62 63 63 63 63 62 60 59 60 64 69 70 70
104 104 103 102 101 99 98 97 95 93 91 88 85 82 79 74 70 67 65 63 59 56 52 48 46 48 51 51 48 46 45 44 42 40 38 36 36 36 35 35 35 35 34 34 34 34 35 36 37 37 37 38 41 46 52 56 61 68 77 82 82 81 79 77 75 73 72 70 68 68 67 67 66 65 66 67 67 66 65 63 62 64 68 71 71
100 99 99 97 96 96 95 93 91 88 84 81 78 74 71 67 64 62 60 58 55 52 48 44 43 45 49 49 45 43 42 42 40 38 36 34 33 32 32 32 32 32 32 32 32 32 32 33 35 36 37 37 38 41 48 54 59 63 71 79 84 85 84 82 80 78 77 75 74 72 72 71 70 69 69 69 69 70 69 68 66 66 68 70 70
94 93 93 92 91 90 87 85 82 79 76 72 69 67 64 62 59 56 55 52 50 49 47 44 42 42 44 44 42 39 38 37 36 36 34 32 30 29 29 29 29 29 29 29 30 30 30 31 32 33 35 36 37 38 42 49 56 61 66 73 81 86 88 87 85 83 82 80 79 78 77 76 75 74 72 72 72 72 73 72 71 70 71 71 71
86 86 85 84 81 79 76 74 72 70 68 66 64 61 58 55 52 49 49 49 48 47 45 43 41 39 39 39 38 37 34 33 31 31 31 30 29 28 28 28 28 29 29 28 28 29 29 29 30 31 32 33 35 37 39 44 51 58 63 68 75 82 88 90 90 89 87 86 84 83 82 81 80 78 77 76 75 75 75 76 75 75 75 74 73
75 75 73 72 70 69 67 66 64 63 61 59 57 55 53 50 47 45 45 46 47 45 42 39 38 37 36 34 33 32 32 31 30 29 28 28 28 28 28 28 29 29 29 29 29 29 29 29 30 30 29 30 33 36 38 40 45 52 59 64 69 75 83 89 92 93 92 91 89 88 87 86 85 83 82 81 80 79 79 79 79 79 79 79 78
Wind_Direction
316 316 316 318 318 319 322 323 324 325 323 319 317 319 320 323 327 328 328 329 331 333 334 333 333 338 341 340 338 335 333 331 327 322 316 310 305 300 295 290 285 280 276 272 270 268 267 266 265 265 265 265 265 264 263 262 262 261 260 260 259 256 253 248 244 243 242 237 232 228 227 228 228 226 225 227 226 224 222 221 222 223 224 224 225
315 315 314 314 314 316 320 322 322 323 321 315 311 313 317 320 325 328 329 330 332 334 334 333 332 336 339 339 337 335 332 330 327 323 318 312 306 302 298 294 289 284 280 276 273 270 269 269 268 267 267 267 267 267 267 266 265 264 263 261 260 257 255 251 246 243 242 239 234 230 227 226 228 227 225 226 227 225 222 221 222 223 223 223 224
314 313 312 311 310 314 319 320 319 320 317 309 306 310 316 318 321 326 329 329 332 334 334 333 332 334 336 337 335 333 331 328 326 324 322 317 311 307 303 298 293 288 284 281 277 275 273 272 271 271 270 270 269 269 269 268 267 266 265 264 261 258 255 252 248 243 242 240 236 232 228 225 226 227 226 225 226 226 223 222 222 222 223 223 223
313 314 313 311 309 313 317 316 316 317 312 307 305 308 314 316 316 321 326 328 329 332 333 332 329 330 333 334 334 332 330 327 324 322 321 318 314 310 307 302 297 292 288 284 282 280 279 277 276 275 274 273 273 272 271 271 270 269 268 266 263 259 255 251 248 244 241 240 237 233 230 226 224 226 226 225 225 226 225 223 223 223 222 223 223
313 314 314 311 311 314 315 315 315 314 310 306 304 308 313 315 313 316 322 326 327 329 331 331 329 328 331 333 333 332 330 327 323 319 317 316 312 309 307 304 300 296 293 290 288 286 285 285 283 282 280 279 278 276 275 274 273 271 269 267 264 260 255 250 247 243 240 239 237 233 231 227 224 224 226 225 224 225 225 224 223 223 223 223 224
312 312 312 311 313 315 315 315 314 311 310 308 307 310 313 313 312 314 318 323 325 326 329 331 329 327 328 331 332 331 329 327 323 320 317 315 312 309 307 305 302 300 298 296 295 293 292 290 289 287 286 284 282 281 279 277 275 273 270 267 265 260 255 250 246 243 239 237 236 233 230 228 224 223 224 224 223 223 224 224 223 223 223 223 223
312 311 311 313 316 317 317 317 315 313 312 311 310 312 312 310 311 313 316 321 323 324 327 330 328 325 326 331 332 331 329 327 324 321 318 315 313 311 308 306 305 304 303 301 299 296 294 292 291 289 288 287 285 284 282 279 277 274 271 267 264 260 255 250 245 242 238 236 236 234 230 227 225 223 223 224 223 222 223 224 223 222 222 222 222
311 310 312 314 316 317 317 315 314 313 312 310 310 310 309 308 310 312 314 317 320 322 326 328 327 323 324 329 332 330 328 326 324 321 317 315 315 313 310 308 308 307 305 303 301 298 297 295 293 292 290 289 288 286 284 282 279 275 272 268 264 259 254 249 244 241 238 235 234 233 231 227 224 222 222 223 222 222 222 223 223 222 222 222 221
308 309 313 314 314 315 312 308 308 309 309 309 309 308 307 306 308 310 311 313 316 321 325 327 325 322 323 327 330 330 328 326 323 319 316 316 316 314 311 310 309 308 307 306 305 303 302 300 297 296 294 292 289 287 285 282 279 276 272 268 263 258 253 249 243 239 236 233 232 232 231 227 223 222 221 222 221 221 221 221 222 222 221 221 222
308 309 311 311 311 310 305 300 302 305 306 308 308 307 306 305 305 307 309 310 314 319 323 325 324 322 322 326 328 329 327 326 323 320 317 317 317 313 311 311 310 310 310 310 308 307 305 303 301 300 297 295 292 290 288 284 280 275 271 267 263 256 251 247 242 238 234 232 230 230 230 227 224 221 220 220 220 220 220 220 221 221 220 220 221
305 306 308 309 308 303 297 294 298 300 301 303 305 306 306 306 306 307 308 309 313 318 321 323 323 321 321 324 327 327 327 325 322 319 317 317 315 313 312 312 312 312 312 312 310 308 306 304 303 302 299 297 295 293 289 285 280 275 270 266 262 256 249 245 242 237 233 230 229 228 228 227 224 221 219 219 219 219 219 219 220 220 220 219 221
301 303 307 306 299 293 289 290 293 295 296 299 303 306 307 306 306 306 307 308 312 317 320 321 322 320 320 323 325 326 325 323 320 317 315 315 314 312 312 313 314 315 314 313 310 308 308 306 305 303 300 299 296 293 288 283 279 274 268 264 261 255 249 244 240 236 232 229 228 227 227 226 224 221 219 217 218 218 218 218 219 220 219 218 220
299 300 303 296 284 282 285 287 289 291 293 297 303 307 307 306 305 305 306 307 311 315 318 320 320 318 319 322 324 325 324 322 319 316 315 314 314 313 314 315 316 316 316 315 312 312 312 310 308 305 302 300 296 292 286 281 277 272 267 263 259 255 249 243 239 236 233 229 227 227 226 226 224 222 219 216 216 216 217 216 218 218 217 217 219
299 291 286 278 273 276 282 285 287 289 292 298 304 306 305 305 304 305 306 307 310 314 317 319 319 317 318 321 323 323 323 321 319 317 315 315 315 315 316 317 317 317 318 317 315 315 315 313 311 308 305 301 296 291 285 280 275 271 266 261 256 252 248 242 238 235 233 229 227 226 226 225 223 221 219 215 213 214 215 215 216 216 215 215 217
297 280 271 270 271 275 280 282 285 289 294 300 303 304 303 303 304 305 305 306 309 313 316 318 318 317 318 320 322 323 322 320 318 317 315 315 315 316 317 317 318 318 318 317 316 316 316 314 312 309 306 302 296 290 285 280 275 270 265 259 254 250 246 242 237 234 232 229 226 225 224 224 222 220 218 214 212 212 213 213 214 214 214 214 216
278 265 263 266 271 276 278 281 287 292 296 299 302 303 302 303 303 304 304 305 309 312 315 317 317 317 318 320 321 322 321 318 317 316 315 315 315 316 316 316 316 316 316 315 315 315 315 313 311 309 306 301 296 291 286 280 275 270 264 258 252 248 245 241 237 233 231 228 226 224 223 223 222 220 217 213 211 211 212 212 212 213 213 214 215
265 262 264 268 274 278 280 284 289 292 295 299 301 302 302 302 303 303 303 305 309 313 315 316 316 317 318 319 320 320 319 317 316 316 316 315 315 315 315 315 315 314 314 313 313 314 313 311 309 307 304 300 295 291 285 280 274 269 263 256 251 247 244 241 238 234 231 228 226 224 223 222 221 219 216 213 211 210 210 210 211 211 212 212 214
266 268 270 274 277 279 281 284 288 291 295 299 300 301 302 302 303 302 303 306 310 313 314 315 316 317 317 318 319 319 318 317 316 316 316 315 315 314 315 315 315 314 313 312 313 313 312 310 307 304 301 298 294 289 284 278 272 265 258 254 250 247 245 243 240 237 233 230 227 226 224 222 221 219 215 212 211 209 209 209 210 210 210 211 212
268 268 270 273 275 276 279 282 286 292 296 298 298 299 301 301 301 301 303 307 311 313 314 315 316 316 317 317 318 318 317 317 316 316 316 316 315 315 315 315 315 314 312 311 312 312 310 308 304 301 298 295 291 286 281 274 266 258 253 252 251 249 247 244 242 240 237 233 230 228 225 223 221 219 215 212 210 209 208 208 209 209 209 210 212
274 271 271 272 273 275 278 281 287 292 295 296 297 298 300 300 300 302 305 309 311 312 313 314 315 316 316 317 317 317 316 316 316 316 317 317 317 316 316 315 315 313 312 311 310 310 308 305 302 298 295 292 288 282 275 266 258 251 247 249 251 250 248 245 242 241 240 236 232 230 226 223 221 218 214 211 210 208 207 208 207 207 208 209 211
277 274 273 274 276 280 282 283 287 291 293 295 298 299 299 299 300 303 307 309 310 311 312 314 315 315 315 315 315 315 315 316 317 318 318 318 318 317 315 315 314 312 311 309 308 307 305 303 299 295 293 290 285 277 266 256 248 244 243 244 247 249 249 247 244 242 241 238 233 231 227 223 220 217 213 210 208 207 207 207 207 206 207 208 210
276 276 277 280 283 284 283 284 287 289 292 297 299 298 298 299 302 305 308 309 309 310 311 313 313 314 314 314 314 314 315 316 317 318 319 318 317 316 315 314 313 311 310 308 306 305 303 300 296 293 290 286 281 269 255 244 239 237 234 235 240 245 246 246 246 245 243 240 235 231 228 223 219 215 212 209 207 206 206 206 206 206 207 208 209
275 277 280 282 283 282 282 283 286 288 293 298 299 297 298 301 303 306 308 308 309 310 311 312 313 313 313 312 313 314 315 316 317 318 318 317 316 315 314 313 311 309 308 306 304 303 301 297 293 290 285 282 275 258 243 236 232 226 221 226 236 244 246 246 248 249 246 242 236 231 227 223 218 214 210 207 205 205 205 205 205 205 206 208 209
276 277 279 280 279 279 280 282 285 289 294 298 298 298 300 302 304 306 307 307 309 310 311 312 312 312 312 312 312 313 315 316 317 317 316 316 315 314 313 312 310 308 307 305 303 301 299 294 290 285 279 275 265 244 233 229 222 214 214 223 233 241 246 248 251 251 247 242 235 229 226 222 217 213 209 206 204 203 204 205 205 205 207 208 209
277 278 278 278 278 278 280 282 287 292 296 298 298 299 300 302 304 305 306 307 308 309 310 310 310 310 311 311 311 313 314 315 316 316 315 315 314 313 312 311 309 307 306 304 301 299 296 292 286 280 273 267 253 231 224 220 212 205 208 218 228 235 242 249 255 253 245 239 232 225 221 219 215 211 208 205 203 203 203 204 205 205 207 208 209
275 277 278 277 277 279 282 286 291 294 297 297 297 298 300 302 304 306 307 308 308 308 308 308 309 310 310 310 311 312 313 314 315 315 314 313 313 312 312 311 309 307 305 303 300 297 293 288 283 276 268 260 241 221 215 212 204 198 201 212 223 231 237 247 258 253 242 235 229 221 215 214 211 208 205 204 203 202 203 204 205 206 207 208 209
274 276 277 277 279 283 287 290 293 295 296 296 298 300 302 304 306 306 307 307 307 306 307 307 308 309 310 310 311 312 313 313 314 314 313 312 312 312 311 310 309 307 304 302 298 295 290 285 280 271 262 252 232 215 209 205 198 194 198 208 217 223 227 238 253 255 246 235 226 215 209 208 206 203 202 202 202 202 203 204 205 206 208 209 210
276 278 279 281 285 288 291 293 294 296 297 299 301 303 304 305 306 306 305 305 304 304 305 306 307 308 308 309 311 312 313 313 313 313 312 312 311 310 310 310 308 306 303 300 296 293 288 282 276 266 257 245 224 210 205 200 194 193 198 205 211 214 217 223 232 245 252 243 226 212 204 203 201 198 199 201 201 201 203 205 206 208 209 210 211
278 280 283 286 289 291 292 294 295 297 300 301 302 303 303 304 303 303 302 302 302 303 305 306 307 308 309 310 311 312 313 313 312 312 311 311 310 309 308 309 307 305 301 297 294 290 285 280 272 260 251 237 217 206 201 196 193 194 199 204 208 209 212 216 217 223 245 249 228 211 201 199 198 196 197 199 201 201 204 206 207 209 210 211 212
278 281 285 288 290 291 293 294 296 298 299 300 300 300 300 301 301 301 301 302 303 304 305 306 308 308 309 310 311 312 312 313 312 311 310 310 308 307 307 307 305 302 298 295 292 287 282 276 267 254 244 230 212 203 198 195 193 195 197 202 205 206 210 216 212 207 230 248 229 209 199 198 199 196 194 196 199 201 203 206 208 210 211 212 212
281 285 287 289 290 291 292 293 295 296 296 296 297 298 299 299 300 301 302 302 303 304 306 307 308 309 310 310 311 312 312 312 311 310 309 308 306 305 304 304 303 299 294 291 289 284 278 272 261 248 238 225 209 200 196 194 194 194 195 199 204 206 210 215 211 201 215 242 229 209 199 198 199 197 194 194 197 200 202 204 207 210 212 213 213
285 287 288 289 289 290 291 292 293 293 293 294 296 298 298 298 299 300 301 302 302 303 305 307 308 309 310 310 311 311 311 311 310 309 307 306 304 303 302 301 299 295 290 287 284 280 274 266 254 243 234 221 207 200 196 194 194 194 194 198 205 208 209 212 212 203 206 229 227 210 201 200 201 199 196 195 198 200 200 202 205 209 211 213 214
287 288 289 290 290 291 292 292 291 291 292 294 296 297 297 297 298 300 301 301 302 302 304 307 308 309 310 310 311 311 311 310 309 307 306 304 302 301 300 299 296 292 287 284 280 275 269 260 247 238 231 219 206 200 196 194 194 194 194 196 203 209 208 210 214 210 206 217 221 209 202 201 201 200 198 198 200 201 201 201 203 206 209 212 214
286 288 289 290 291 291 291 290 290 291 293 295 296 297 297 298 298 299 300 301 301 302 304 306 308 309 309 310 311 311 310 309 307 306 305 302 300 299 297 296 294 290 285 281 277 271 264 255 242 235 228 216 206 200 197 195 195 195 193 195 203 209 207 208 215 217 210 211 215 208 200 198 199 198 197 199 201 203 203 202 203 205 207 209 212
285 287 288 289 289 289 288 288 289 292 294 295 296 297 297 297 298 299 300 300 301 302 304 306 307 308 309 310 310 310 309 308 307 306 304 301 299 297 295 293 292 288 282 278 274 267 260 249 238 232 226 215 207 202 198 196 196 195 193 194 203 209 207 206 212 218 215 210 208 203 197 195 195 194 194 197 201 204 204 204 204 205 206 207 209
285 286 286 286 286 286 286 287 289 291 292 293 295 295 296 296 298 300 300 300 301 303 305 306 307 307 309 309 310 309 308 307 307 305 302 300 297 294 292 290 289 285 280 275 271 264 257 246 235 229 224 215 207 203 199 197 197 196 193 195 202 206 206 205 207 212 215 212 204 197 195 194 192 192 194 197 200 203 205 205 205 206 207 208 209
285 285 285 285 285 286 287 288 289 290 291 293 294 295 296 297 298 299 300 300 302 303 305 305 306 307 308 309 309 308 307 307 306 303 300 297 294 291 289 287 286 283 278 273 268 262 254 244 234 228 223 216 209 204 201 199 199 197 195 197 200 203 205 206 206 207 211 213 206 197 195 196 194 191 193 198 201 202 205 206 206 207 208 208 209
285 285 285 285 285 286 287 288 289 290 292 293 294 295 296 297 298 298 299 301 302 303 304 305 306 307 308 307 307 307 306 305 303 300 297 294 292 288 286 283 282 280 276 271 267 262 254 244 234 227 223 216 210 206 203 201 200 199 197 198 199 200 203 207 208 206 206 210 211 202 197 198 198 192 190 196 200 202 204 206 207 208 208 208 209
284 284 284 285 286 287 288 289 290 291 292 293 294 295 296 297 298 299 300 301 302 303 304 305 305 306 306 306 306 305 304 302 300 298 295 293 290 287 284 281 278 277 274 271 266 262 256 247 235 227 223 217 211 207 205 203 202 201 200 199 199 199 201 206 209 207 204 206 211 209 203 201 201 197 192 193 197 199 200 203 206 208 209 210 210
282 283 284 285 286 287 288 289 290 292 293 294 294 295 296 297 298 299 300 301 302 303 304 304 304 304 305 304 303 302 301 299 297 295 293 291 288 286 283 279 276 275 274 271 267 262 257 250 239 229 224 219 213 209 207 205 203 203 202 201 199 199 201 204 207 208 206 205 208 211 209 205 203 200 196 195 197 199 198 198 200 205 209 211 213
281 282 284 285 286 286 288 289 291 292 293 293 293 294 296 297 298 299 300 301 302 303 303 303 303 303 303 302 301 300 298 297 296 294 292 289 287 284 281 277 274 272 272 271 269 264 258 253 244 233 226 221 216 211 208 207 205 204 204 203 201 200 201 204 206 207 207 206 207 210 211 209 206 204 201 198 198 200 200 198 198 201 206 209 212
282 283 285 286 287 288 289 291 291 292 292 293 293 294 296 297 298 299 300 301 301 302 302 301 301 301 300 299 298 297 296 294 294 293 292 289 287 285 281 278 275 273 271 270 269 267 262 255 247 238 229 224 219 214 210 208 207 206 205 205 204 202 201 204 206 207 208 207 207 208 211 213 211 209 205 202 201 201 202 202 201 202 204 207 210
283 284 286 287 288 289 289 290 291 292 292 293 294 295 296 297 298 299 299 300 300 300 299 299 298 298 297 296 296 295 294 293 292 291 290 288 287 285 282 279 277 275 273 271 269 268 266 261 252 241 232 226 222 218 213 210 209 208 207 206 205 204 203 203 206 207 208 209 208 208 209 212 214 213 212 208 205 204 205 205 205 205 206 208 210
284 285 286 287 288 289 289 290 291 292 293 294 295 296 297 297 298 298 298 298 298 298 297 297 296 295 294 293 293 293 292 292 291 290 289 287 285 283 281 278 276 275 273 272 270 268 267 265 258 247 236 229 225 221 217 213 211 210 209 208 207 206 205 204 205 207 209 210 210 209 209 211 213 215 216 215 212 210 209 209 208 208 208 209 211
284 285 286 287 288 289 290 291 291 292 293 294 295 296 296 297 297 297 297 296 296 296 295 295 294 294 293 292 292 292 291 291 290 289 288 286 285 283 281 279 277 274 272 271 270 268 267 265 261 253 241 232 227 224 220 217 213 212 211 210 209 208 206 205 205 207 209 211 211 211 211 211 212 213 216 217 218 217 215 214 213 211 210 211 212
284 285 286 286 287 289 289 290 291 292 293 294 295 295 295 295 295 295 295 294 294 294 294 293 293 293 293 292 293 293 292 290 289 288 287 285 284 282 281 279 278 276 273 270 269 267 266 264 261 256 248 238 230 226 224 221 217 214 213 212 211 210 209 207 207 207 209 211 212 212 212 212 212 213 215 217 219 220 219 219 218 215 213 212 213
283 284 285 286 287 288 289 290 291 292 293 294 294 294 293 294 293 293 293 293 293 293 292 291 291 292 291 292 293 293 292 291 290 288 286 284 282 281 280 279 278 277 275 272 270 267 264 262 260 257 252 245 237 230 226 224 221 218 215 214 213 212 211 210 209 208 209 210 212 213 214 214 214 214 214 216 218 220 220 221 221 218 214 213 213
282 283 284 285 287 288 289 290 291 291 292 292 292 291 291 292 292 292 292 292 291 291 290 290 290 290 290 290 291 291 291 291 290 289 287 284 282 280 279 279 278 277 276 274 272 269 265 262 258 256 253 249 243 236 230 227 225 222 219 217 215 214 213 212 211 210 210 210 212 213 215 215 215 215 215 215 217 219 220 221 221 218 214 212 213
281 282 284 285 286 288 289 289 290 290 290 290 290 290 290 290 291 291 291 290 290 290 291 291 291 290 289 289 290 289 288 287 286 284 283 282 281 280 279 279 279 278 277 277 275 273 269 265 261 257 253 250 246 241 235 230 227 225 223 220 218 217 216 215 214 213 212 212 212 213 215 216 216 217 217 217 217 218 220 221 222 220 216 215 215
282 283 284 285 287 288 288 289 289 289 289 289 289 289 288 289 289 289 289 289 290 290 291 292 292 290 289 289 289 288 286 283 280 279 279 279 280 281 281 280 281 280 279 278 277 275 272 270 266 262 258 253 249 244 239 233 230 228 226 224 222 219 218 217 216 216 215 214 213 213 214 215 217 217 218 218 218 218 219 221 222 221 220 219 219
283 284 285 286 287 288 289 289 288 288 288 287 288 288 288 288 288 288 289 289 289 289 290 291 291 290 289 288 286 285 284 282 279 278 278 279 280 281 282 282 282 281 280 279 277 275 273 271 268 265 261 258 254 249 243 238 233 230 228 227 226 224 222 220 219 218 218 217 216 215 215 215 216 217 218 219 219 219 219 220 221 222 222 222 222
Height
10917 10914 10911 10906 10902 10900 10897 10895 10892 10890 10887 10883 10879 10876 10874 10870 10866 10862 10859 10856 10852 10848 10843 10838 10833 10828 10822 10818 10813 10808 10803 10798 10793 10789 10785 10782 10779 10778 10776 10775 10774 10773 10772 10770 10769 10767 10766 10765 10764 10764 10763 10762 10760 10760 10759 10760 10760 10761 10762 10763 10764 10767 10769 10772 10774 10770 10767 10773 10780 10782 10786 10792 10800 10807 10812 10815 10819 10823 10829 10833 10837 10841 10845 10849 10853
10912 10910 10907 10902 10898 10896 10892 10889 10886 10884 10881 10877 10874 10871 10869 10866 10861 10856 10853 10849 10843 10838 10832 10827 10822 10817 10813 10810 10807 10803 10798 10793 10789 10785 10781 10776 10773 10771 10769 10768 10767 10765 10764 10762 10761 10760 10758 10756 10755 10754 10754 10753 10751 10749 10749 10748 10749 10749 10750 10752 10753 10755 10757 10759 10763 10762 10757 10760 10767 10771 10774 10782 10789 10794 10800 10806 10810 10815 10821 10826 10830 10834 10838 10842 10847
10906 10905 10902 10897 10892 10890 10887 10883 10881 10878 10875 10871 10867 10864 10862 10859 10855 10851 10847 10843 10838 10832 10826 10821 10816 10811 10808 10805 10802 10798 10793 10788 10784 10780 10776 10771 10767 10765 10763 10762 10760 10758 10756 10754 10752 10751 10750 10748 10747 10746 10745 10743 10741 10739 10738 10737 10737 10737 10737 10739 10741 10742 10744 10746 10749 10751 10748 10747 10754 10759 10763 10771 10778 10781 10789 10797 10801 10807 10814 10818 10821 10826 10830 10835 10839
10900 10899 10897 10891 10887 10884 10880 10877 10874 10870 10867 10863 10860 10857 10855 10853 10850 10846 10842 10838 10834 10829 10825 10821 10816 10810 10805 10800 10795 10791 10786 10781 10776 10774 10770 10765 10762 10759 10757 10755 10754 10751 10749 10747 10745 10743 10742 10740 10738 10737 10735 10733 10732 10730 10728 10726 10725 10725 10725 10726 10728 10729 10730 10732 10735 10738 10737 10736 10740 10748 10753 10760 10767 10770 10777 10786 10792 10798 10805 10809 10812 10818 10822 10827 10832
10892 10892 10891 10887 10882 10878 10873 10870 10866 10862 10859 10857 10854 10852 10849 10847 10844 10841 10837 10834 10830 10826 10821 10816 10811 10805 10799 10795 10789 10784 10779 10774 10769 10766 10763 10759 10755 10752 10749 10747 10745 10744 10742 10740 10738 10737 10734 10731 10728 10726 10724 10722 10720 10718 10716 10714 10713 10712 10712 10712 10713 10714 10715 10718 10721 10724 10725 10724 10727 10735 10741 10748 10756 10759 10765 10774 10782 10788 10796 10801 10805 10810 10814 10820 10825
10884 10884 10884 10880 10876 10872 10866 10861 10858 10855 10853 10852 10850 10847 10844 10841 10838 10835 10831 10827 10823 10818 10813 10808 10803 10798 10794 10790 10785 10779 10773 10768 10762 10757 10754 10751 10747 10744 10741 10739 10737 10736 10735 10733 10731 10729 10726 10722 10718 10714 10712 10710 10708 10705 10703 10702 10701 10699 10698 10699 10699 10699 10701 10704 10707 10710 10713 10713 10714 10721 10730 10737 10744 10749 10754 10762 10771 10779 10786 10792 10797 10802 10807 10813 10818
10877 10875 10875 10871 10867 10863 10858 10853 10850 10848 10847 10846 10844 10841 10838 10834 10831 10828 10823 10819 10816 10812 10807 10802 10797 10793 10788 10783 10778 10772 10766 10761 10756 10750 10745 10742 10740 10737 10734 10731 10729 10728 10727 10725 10723 10720 10716 10712 10707 10703 10700 10697 10695 10692 10689 10689 10687 10685 10685 10685 10685 10686 10687 10690 10694 10697 10700 10701 10702 10708 10717 10725 10733 10738 10743 10750 10760 10768 10776 10782 10789 10795 10799 10804 10809
10870 10868 10866 10862 10858 10854 10850 10846 10844 10842 10841 10840 10837 10834 10830 10826 10823 10821 10817 10814 10811 10807 10802 10797 10791 10787 10781 10775 10770 10764 10758 10753 10749 10744 10739 10735 10733 10730 10727 10724 10722 10720 10718 10715 10712 10709 10706 10701 10696 10692 10689 10686 10682 10679 10676 10675 10673 10671 10671 10672 10672 10672 10674 10677 10680 10684 10687 10690 10692 10696 10704 10713 10721 10727 10732 10739 10749 10757 10765 10771 10778 10785 10790 10795 10800
10865 10862 10859 10855 10850 10847 10844 10841 10837 10836 10835 10833 10831 10828 10824 10821 10817 10814 10811 10808 10805 10801 10795 10789 10784 10779 10774 10768 10764 10758 10751 10744 10740 10736 10733 10729 10726 10722 10719 10717 10715 10713 10709 10705 10700 10696 10692 10688 10683 10680 10678 10674 10670 10667 10665 10662 10660 10657 10657 10658 10659 10660 10661 10664 10668 10671 10675 10679 10681 10684 10690 10699 10709 10716 10721 10729 10737 10745 10753 10760 10768 10776 10782 10788 10794
10859 10856 10854 10850 10846 10843 10839 10836 10833 10831 10829 10828 10826 10823 10820 10817 10812 10809 10805 10801 10798 10793 10787 10782 10778 10772 10767 10762 10757 10752 10744 10737 10732 10729 10727 10724 10720 10715 10711 10710 10708 10705 10701 10696 10690 10685 10680 10675 10671 10667 10664 10660 10657 10654 10652 10650 10647 10646 10644 10644 10646 10648 10650 10652 10655 10659 10663 10667 10670 10673 10678 10686 10696 10704 10711 10718 10725 10733 10741 10750 10758 10765 10774 10782 10787
10854 10852 10850 10845 10840 10837 10834 10831 10830 10827 10826 10824 10822 10819 10816 10812 10808 10804 10800 10795 10791 10786 10781 10776 10771 10765 10760 10754 10749 10744 10738 10731 10726 10723 10720 10717 10713 10708 10704 10702 10699 10696 10692 10688 10682 10676 10670 10665 10660 10655 10650 10648 10645 10642 10640 10637 10635 10634 10633 10633 10633 10636 10639 10641 10644 10648 10652 10656 10659 10662 10667 10674 10683 10692 10700 10707 10714 10722 10730 10740 10748 10756 10766 10776 10780
10848 10848 10846 10840 10834 10830 10827 10826 10824 10823 10822 10820 10817 10814 10811 10807 10803 10799 10794 10790 10785 10779 10774 10769 10764 10758 10753 10748 10742 10736 10731 10726 10721 10716 10713 10709 10705 10701 10696 10693 10690 10686 10682 10677 10672 10667 10661 10655 10651 10646 10641 10638 10635 10632 10629 10627 10624 10623 10623 10623 10623 10625 10627 10630 10633 10636 10641 10645 10648 10652 10656 10663 10671 10680 10689 10696 10704 10712 10720 10730 10739 10748 10759 10769 10773
10845 10845 10844 10839 10830 10823 10820 10819 10818 10816 10815 10813 10810 10807 10803 10799 10796 10792 10788 10784 10778 10772 10767 10763 10758 10751 10746 10741 10734 10728 10723 10719 10714 10710 10705 10702 10697 10692 10688 10684 10680 10676 10671 10666 10661 10655 10650 10645 10641 10636 10632 10629 10625 10622 10620 10617 10614 10613 10613 10614 10614 10615 10617 10620 10622 10626 10630 10634 10638 10642 10646 10652 10660 10668 10677 10685 10695 10703 10711 10720 10729 10739 10750 10760 10764
10844 10844 10841 10832 10823 10818 10815 10812 10810 10808 10807 10804 10801 10798 10795 10791 10787 10783 10780 10776 10770 10765 10761 10756 10751 10744 10738 10733 10727 10721 10715 10711 10707 10702 10697 10693 10688 10683 10678 10673 10669 10665 10660 10655 10649 10644 10639 10634 10630 10626 10623 10620 10616 10613 10610 10608 10606 10605 10605 10606 10606 10607 10608 10610 10613 10616 10619 10624 10628 10632 10636 10642 10649 10656 10665 10675 10684 10693 10700 10709 10718 10728 10740 10748 10751
10842 10839 10832 10823 10816 10814 10810 10806 10804 10802 10799 10796 10793 10791 10788 10784 10779 10775 10771 10768 10762 10756 10752 10747 10742 10736 10730 10725 10719 10713 10707 10702 10698 10694 10689 10685 10680 10674 10669 10664 10659 10654 10650 10645 10640 10635 10630 10624 10620 10617 10614 10611 10608 10605 10602 10600 10599 10598 10598 10598 10599 10599 10600 10601 10604 10607 10609 10613 10617 10621 10625 10631 10637 10644 10653 10664 10674 10682 10689 10698 10707 10718 10729 10737 10743
10838 10830 10823 10817 10813 10809 10805 10802 10799 10796 10793 10789 10786 10784 10782 10777 10772 10766 10763 10759 10754 10748 10742 10737 10732 10727 10721 10715 10709 10704 10698 10693 10690 10686 10682 10676 10671 10666 10661 10655 10650 10645 10641 10636 10631 10626 10621 10616 10611 10608 10606 10603 10601 10598 10595 10593 10592 10591 10591 10591 10591 10592 10592 10594 10596 10598 10601 10604 10607 10610 10614 10619 10626 10634 10644 10655 10665 10672 10680 10689 10699 10710 10721 10730 10739
10829 10822 10816 10812 10808 10803 10800 10797 10794 10791 10786 10781 10778 10777 10775 10771 10765 10759 10754 10750 10745 10739 10733 10727 10722 10718 10712 10706 10701 10697 10690 10685 10682 10679 10674 10668 10662 10657 10652 10647 10641 10636 10631 10627 10623 10618 10614 10609 10604 10601 10598 10596 10594 10591 10588 10587 10586 10585 10585 10585 10585 10585 10586 10587 10589 10591 10594 10596 10598 10601 10604 10611 10618 10626 10637 10648 10656 10663 10673 10684 10693 10702 10713 10724 10734
10822 10816 10811 10806 10801 10797 10795 10793 10790 10786 10780 10774 10770 10768 10765 10761 10757 10751 10745 10740 10735 10729 10723 10717 10713 10708 10702 10697 10693 10689 10682 10677 10673 10670 10665 10659 10653 10648 10643 10637 10631 10625 10621 10617 10613 10610 10606 10601 10597 10594 10591 10589 10587 10585 10583 10582 10581 10580 10580 10579 10580 10580 10581 10582 10583 10585 10587 10588 10591 10594 10598 10604 10611 10619 10630 10640 10646 10656 10668 10677 10683 10692 10705 10717 10725
10814 10809 10804 10799 10795 10792 10790 10789 10786 10781 10775 10770 10766 10762 10758 10753 10749 10743 10736 10730 10724 10717 10711 10707 10703 10698 10691 10686 10682 10678 10673 10669 10666 10662 10657 10652 10646 10640 10634 10629 10622 10616 10611 10608 10604 10601 10598 10594 10590 10587 10584 10582 10581 10579 10578 10577 10577 10576 10576 10575 10576 10576 10577 10578 10578 10579 10580 10582 10585 10588 10592 10598 10604 10612 10622 10631 10639 10650 10660 10666 10672 10685 10699 10709 10717
10804 10801 10797 10793 10790 10787 10785 10783 10780 10775 10770 10766 10762 10757 10752 10746 10741 10735 10728 10720 10713 10707 10701 10697 10693 10687 10679 10674 10669 10665 10662 10659 10657 10653 10648 10643 10637 10631 10626 10620 10614 10607 10603 10599 10596 10593 10591 10587 10583 10580 10577 10576 10575 10573 10573 10573 10572 10572 10572 10572 10572 10572 10572 10573 10573 10574 10574 10576 10579 10581 10585 10591 10597 10604 10614 10623 10631 10642 10650 10656 10666 10679 10690 10700 10709
10793 10789 10786 10785 10782 10780 10778 10775 10772 10768 10763 10759 10755 10749 10744 10738 10732 10726 10719 10710 10703 10697 10692 10689 10684 10677 10669 10664 10659 10655 10651 10648 10645 10643 10638 10633 10628 10623 10617 10612 10606 10600 10595 10591 10588 10585 10583 10580 10577 10573 10571 10570 10569 10568 10568 10569 10568 10568 10569 10569 10569 10568 10568 10569 10569 10569 10569 10570 10573 10575 10579 10584 10590 10596 10605 10614 10623 10632 10640 10648 10659 10671 10681 10691 10701
10782 10776 10774 10774 10773 10770 10768 10765 10762 10758 10754 10750 10746 10741 10735 10729 10723 10716 10708 10699 10693 10689 10684 10681 10677 10670 10661 10656 10651 10646 10643 10638 10634 10631 10627 10622 10617 10612 10608 10603 10598 10592 10587 10583 10580 10578 10575 10572 10570 10567 10565 10564 10564 10564 10564 10565 10565 10565 10565 10566 10566 10565 10565 10565 10565 10564 10565 10566 10568 10571 10574 10578 10583 10590 10598 10606 10615 10623 10632 10642 10653 10664 10673 10683 10692
10775 10768 10765 10764 10762 10760 10757 10755 10752 10749 10745 10741 10737 10732 10726 10719 10712 10706 10698 10689 10683 10679 10675 10671 10667 10660 10653 10646 10642 10638 10634 10629 10625 10621 10617 10612 10607 10602 10598 10594 10589 10584 10579 10575 10573 10571 10569 10566 10563 10561 10559 10559 10559 10559 10561 10561 10562 10562 10563 10563 10563 10563 10562 10562 10561 10561 10561 10563 10565 10567 10570 10574 10579 10584 10592 10599 10608 10616 10625 10635 10646 10657 10665 10675 10685
10765 10761 10759 10757 10754 10751 10748 10745 10744 10741 10737 10732 10727 10721 10715 10708 10702 10697 10691 10683 10675 10669 10664 10660 10656 10651 10644 10638 10634 10631 10626 10620 10616 10612 10607 10602 10598 10594 10590 10586 10581 10576 10572 10568 10565 10563 10561 10559 10557 10555 10554 10554 10554 10555 10557 10558 10559 10560 10560 10560 10560 10560 10560 10559 10559 10559 10559 10560 10561 10564 10567 10570 10575 10580 10587 10595 10602 10610 10619 10630 10640 10650 10659 10669 10679
10750 10751 10751 10748 10744 10742 10738 10736 10734 10730 10726 10721 10715 10709 10703 10698 10693 10688 10682 10676 10669 10662 10657 10652 10647 10642 10636 10631 10627 10625 10619 10613 10608 10604 10599 10594 10590 10585 10582 10578 10573 10569 10565 10561 10558 10556 10554 10552 10551 10549 10549 10549 10549 10551 10553 10555 10556 10557 10558 10558 10558 10558 10558 10557 10557 10557 10557 10557 10559 10561 10564 10568 10572 10578 10584 10592 10600 10608 10616 10627 10637 10646 10655 10664 10675
10736 10739 10740 10737 10734 10732 10728 10725 10722 10719 10714 10709 10704 10699 10693 10688 10682 10676 10670 10664 10659 10653 10648 10644 10639 10634 10627 10622 10619 10616 10611 10605 10601 10596 10590 10585 10581 10577 10573 10569 10565 10561 10557 10554 10552 10550 10547 10546 10544 10543 10543 10544 10545 10547 10549 10552 10553 10554 10556 10556 10557 10556 10556 10556 10556 10555 10555 10556 10557 10559 10562 10566 10570 10576 10583 10590 10598 10606 10614 10623 10632 10641 10649 10659 10669
10725 10729 10730 10727 10725 10722 10717 10713 10709 10706 10702 10697 10692 10686 10680 10674 10667 10661 10656 10652 10647 10643 10639 10635 10631 10627 10621 10615 10611 10608 10603 10597 10592 10587 10581 10576 10572 10568 10564 10561 10557 10553 10550 10548 10545 10543 10541 10540 10539 10538 10538 10539 10540 10543 10546 10548 10550 10551 10553 10554 10555 10555 10554 10554 10554 10554 10554 10555 10556 10558 10561 10564 10568 10574 10581 10587 10594 10603 10612 10620 10628 10637 10645 10654 10663
10714 10717 10718 10716 10713 10709 10704 10700 10696 10690 10685 10680 10675 10669 10664 10659 10655 10651 10647 10642 10638 10634 10631 10626 10622 10619 10615 10609 10603 10599 10593 10587 10582 10576 10571 10566 10562 10558 10555 10553 10549 10546 10543 10541 10539 10537 10535 10534 10533 10533 10533 10534 10536 10539 10542 10544 10546 10548 10550 10552 10553 10553 10553 10553 10553 10553 10554 10554 10555 10557 10560 10563 10567 10573 10578 10584 10591 10600 10609 10618 10626 10634 10643 10651 10660
10704 10704 10705 10703 10700 10695 10691 10687 10683 10677 10671 10666 10662 10658 10654 10651 10648 10644 10639 10634 10630 10626 10622 10617 10612 10609 10604 10599 10594 10588 10583 10576 10570 10565 10560 10556 10552 10549 10546 10544 10542 10538 10536 10534 10533 10531 10529 10529 10528 10528 10529 10530 10532 10535 10538 10541 10543 10545 10547 10549 10550 10551 10551 10552 10552 10552 10553 10554 10555 10556 10559 10562 10566 10571 10577 10584 10591 10598 10606 10615 10623 10631 10638 10646 10655
10695 10694 10694 10693 10689 10685 10680 10676 10673 10669 10665 10660 10656 10652 10649 10645 10641 10636 10630 10625 10621 10617 10612 10606 10601 10596 10592 10587 10582 10577 10572 10565 10560 10554 10549 10546 10542 10539 10538 10536 10534 10532 10529 10527 10527 10526 10524 10524 10523 10524 10524 10526 10528 10531 10534 10537 10539 10542 10544 10546 10547 10549 10550 10550 10551 10551 10552 10553 10554 10556 10558 10561 10565 10569 10575 10582 10589 10595 10601 10608 10617 10625 10633 10640 10649
10686 10684 10685 10684 10682 10678 10674 10670 10667 10664 10660 10656 10651 10646 10641 10637 10632 10626 10620 10616 10612 10607 10601 10596 10590 10585 10580 10575 10570 10566 10560 10555 10549 10544 10540 10537 10533 10530 10529 10528 10527 10525 10523 10521 10521 10520 10519 10519 10519 10519 10520 10522 10524 10527 10530 10533 10536 10539 10541 10543 10544 10546 10548 10548 10549 10550 10551 10552 10553 10555 10557 10560 10564 10568 10573 10578 10584 10589 10595 10602 10610 10619 10628 10636 10644
10676 10674 10674 10673 10671 10669 10666 10662 10659 10654 10649 10646 10644 10639 10633 10627 10621 10616 10611 10607 10602 10596 10590 10585 10579 10574 10569 10564 10559 10554 10549 10545 10540 10535 10531 10528 10525 10522 10520 10520 10520 10518 10516 10515 10515 10514 10514 10514 10514 10515 10516 10517 10520 10523 10526 10529 10532 10535 10537 10539 10541 10543 10545 10546 10547 10548 10549 10551 10552 10553 10555 10558 10562 10566 10571 10575 10579 10584 10590 10596 10604 10612 10621 10630 10638
10664 10662 10661 10659 10656 10653 10651 10648 10645 10641 10637 10634 10632 10629 10624 10618 10611 10606 10602 10597 10591 10585 10579 10573 10568 10563 10559 10554 10548 10543 10538 10534 10530 10526 10523 10520 10517 10514 10511 10512 10512 10511 10510 10509 10509 10509 10509 10509 10510 10510 10511 10513 10516 10519 10522 10525 10528 10531 10533 10536 10538 10540 10542 10544 10545 10545 10547 10549 10550 10552 10553 10556 10560 10563 10568 10573 10577 10582 10587 10593 10600 10606 10615 10624 10632
10652 10650 10648 10646 10643 10639 10636 10632 10628 10625 10621 10618 10617 10615 10613 10608 10602 10596 10591 10586 10581 10574 10568 10562 10557 10552 10549 10545 10539 10533 10528 10523 10520 10517 10514 10512 10509 10506 10504 10503 10504 10504 10504 10503 10504 10503 10503 10504 10505 10506 10507 10509 10511 10514 10518 10521 10524 10527 10530 10532 10535 10537 10539 10541 10543 10543 10545 10546 10548 10550 10551 10554 10557 10560 10565 10570 10575 10580 10585 10590 10596 10603 10610 10618 10626
10642 10639 10636 10635 10632 10628 10625 10621 10616 10612 10608 10604 10602 10600 10599 10596 10591 10586 10581 10576 10569 10564 10558 10552 10546 10542 10538 10534 10529 10524 10519 10514 10511 10508 10505 10503 10501 10499 10496 10496 10496 10497 10497 10498 10498 10498 10498 10499 10499 10501 10502 10504 10507 10510 10513 10517 10520 10523 10525 10528 10531 10534 10536 10538 10540 10542 10543 10544 10546 10547 10549 10552 10555 10558 10561 10566 10571 10576 10581 10587 10593 10599 10606 10613 10619
10629 10627 10626 10625 10622 10617 10614 10611 10607 10602 10599 10595 10592 10589 10585 10583 10580 10576 10570 10565 10559 10553 10547 10541 10536 10531 10528 10524 10519 10514 10509 10506 10502 10499 10497 10495 10494 10492 10490 10489 10489 10490 10491 10491 10492 10492 10492 10493 10494 10495 10497 10499 10502 10505 10508 10512 10515 10518 10521 10523 10527 10530 10532 10535 10537 10539 10540 10542 10543 10545 10547 10550 10552 10555 10558 10562 10566 10571 10577 10582 10588 10594 10600 10607 10613
10615 10614 10614 10613 10611 10607 10604 10600 10596 10591 10588 10585 10582 10578 10574 10570 10568 10564 10559 10555 10550 10544 10537 10531 10526 10522 10518 10514 10509 10504 10500 10497 10495 10491 10489 10488 10487 10485 10483 10482 10482 10483 10484 10484 10485 10486 10487 10487 10488 10490 10491 10493 10496 10500 10503 10506 10510 10513 10516 10518 10522 10525 10528 10531 10533 10536 10538 10539 10541 10543 10545 10547 10550 10552 10555 10559 10563 10567 10572 10578 10584 10590 10596 10602 10608
10603 10602 10602 10600 10599 10597 10594 10590 10585 10581 10577 10572 10570 10567 10564 10559 10555 10552 10547 10543 10538 10534 10528 10520 10515 10513 10510 10505 10500 10496 10492 10489 10487 10484 10482 10481 10480 10479 10477 10476 10476 10476 10477 10478 10479 10479 10480 10481 10482 10484 10486 10488 10491 10494 10497 10501 10504 10507 10510 10513 10516 10520 10523 10526 10529 10532 10534 10537 10538 10540 10542 10545 10547 10549 10552 10556 10560 10563 10568 10573 10579 10585 10590 10596 10602
10591 10591 10590 10589 10587 10585 10582 10578 10574 10571 10566 10562 10558 10556 10552 10547 10543 10539 10534 10529 10526 10523 10517 10510 10506 10503 10500 10496 10492 10488 10485 10482 10480 10478 10475 10473 10473 10472 10471 10470 10470 10470 10470 10471 10472 10473 10474 10475 10476 10478 10479 10482 10484 10488 10491 10495 10498 10501 10505 10508 10511 10514 10518 10521 10525 10528 10530 10533 10535 10537 10539 10541 10544 10546 10549 10552 10556 10559 10563 10569 10574 10580 10585 10590 10594
10580 10580 10579 10577 10576 10573 10570 10566 10562 10559 10554 10550 10547 10544 10540 10536 10531 10526 10521 10517 10514 10511 10506 10500 10496 10494 10491 10487 10484 10481 10477 10475 10473 10472 10469 10467 10466 10466 10465 10464 10464 10463 10463 10464 10465 10467 10467 10468 10469 10471 10473 10475 10477 10481 10484 10488 10491 10495 10498 10502 10505 10508 10512 10515 10519 10522 10525 10528 10531 10533 10535 10537 10540 10543 10545 10548 10552 10555 10559 10563 10569 10574 10579 10584 10588
10570 10570 10569 10567 10565 10563 10558 10554 10550 10546 10541 10538 10535 10531 10528 10525 10520 10514 10510 10506 10503 10499 10495 10489 10486 10484 10482 10479 10476 10474 10470 10467 10466 10465 10463 10461 10460 10460 10459 10458 10457 10457 10457 10457 10458 10459 10461 10462 10463 10464 10466 10468 10470 10473 10477 10481 10484 10488 10491 10495 10498 10502 10505 10509 10513 10516 10520 10523 10526 10528 10531 10533 10536 10538 10541 10544 10548 10551 10555 10558 10563 10567 10572 10577 10581
10559 10559 10558 10555 10553 10550 10546 10542 10538 10533 10529 10525 10521 10518 10516 10513 10508 10502 10499 10495 10492 10489 10484 10479 10477 10475 10473 10470 10469 10466 10463 10460 10459 10458 10456 10454 10454 10454 10452 10451 10451 10451 10451 10451 10451 10452 10453 10455 10456 10457 10459 10461 10464 10466 10469 10473 10477 10480 10484 10488 10491 10495 10498 10502 10506 10510 10514 10517 10520 10523 10526 10528 10531 10534 10537 10540 10543 10547 10550 10554 10557 10561 10565 10569 10573
10550 10548 10546 10543 10539 10536 10532 10529 10525 10520 10516 10513 10509 10505 10502 10499 10495 10491 10488 10485 10483 10480 10476 10471 10468 10466 10464 10463 10461 10458 10455 10453 10452 10451 10450 10448 10447 10447 10446 10444 10443 10444 10444 10444 10445 10445 10446 10447 10449 10450 10452 10454 10456 10459 10462 10465 10469 10472 10476 10480 10484 10487 10491 10495 10499 10503 10507 10510 10514 10517 10520 10523 10526 10528 10531 10534 10538 10541 10545 10549 10552 10555 10558 10562 10565
10539 10536 10533 10531 10526 10522 10518 10515 10511 10507 10504 10501 10497 10493 10490 10487 10484 10480 10478 10475 10474 10472 10469 10464 10460 10457 10455 10455 10454 10452 10448 10445 10444 10444 10443 10441 10440 10440 10438 10437 10437 10437 10437 10437 10437 10438 10438 10439 10441 10442 10444 10446 10449 10451 10455 10458 10461 10465 10468 10472 10476 10479 10483 10487 10491 10496 10500 10503 10507 10510 10514 10517 10520 10522 10525 10528 10531 10535 10538 10542 10546 10549 10552 10555 10559
10527 10523 10520 10517 10514 10509 10506 10502 10498 10495 10492 10489 10486 10483 10479 10476 10473 10470 10467 10465 10464 10463 10462 10458 10452 10447 10445 10445 10446 10445 10442 10439 10437 10437 10436 10435 10433 10432 10431 10429 10429 10430 10430 10430 10430 10431 10431 10432 10433 10435 10437 10439 10441 10444 10447 10450 10453 10457 10460 10464 10468 10472 10475 10479 10483 10487 10491 10495 10499 10503 10506 10510 10513 10516 10519 10521 10524 10527 10531 10535 10538 10542 10545 10548 10551
10514 10510 10507 10504 10501 10498 10494 10490 10486 10483 10481 10478 10475 10472 10469 10466 10463 10460 10458 10456 10455 10454 10454 10452 10447 10441 10436 10435 10436 10436 10434 10432 10431 10430 10429 10428 10426 10425 10423 10422 10422 10422 10423 10423 10423 10423 10424 10424 10425 10427 10429 10431 10433 10436 10439 10442 10445 10449 10452 10456 10460 10464 10467 10471 10475 10479 10483 10487 10490 10494 10498 10502 10505 10509 10511 10514 10517 10520 10523 10527 10530 10533 10537 10540 10544
10500 10497 10494 10491 10489 10486 10482 10479 10476 10473 10471 10468 10465 10461 10459 10457 10455 10452 10449 10447 10446 10445 10444 10444 10442 10436 10430 10427 10428 10427 10425 10423 10423 10422 10422 10421 10420 10418 10417 10416 10415 10415 10415 10416 10416 10417 10417 10417 10418 10419 10421 10424 10426 10428 10431 10434 10437 10441 10444 10448 10452 10455 10459 10463 10466 10470 10474 10478 10481 10485 10489 10493 10497 10500 10504 10507 10509 10512 10515 10519 10522 10525 10528 10532 10535
10487 10484 10481 10480 10478 10475 10472 10468 10465 10463 10461 10458 10455 10451 10449 10448 10446 10443 10440 10438 10436 10435 10435 10436 10435 10431 10425 10422 10422 10421 10419 10417 10416 10415 10414 10414 10414 10413 10412 10411 10410 10409 10409 10409 10410 10410 10411 10411 10411 10412 10414 10416 10419 10421 10423 10426 10429 10432 10435 10439 10443 10446 10450 10454 10458 10462 10465 10469 10472 10476 10480 10483 10487 10491 10495 10498 10502 10505 10508 10511 10514 10517 10520 10523 10527
10474 10471 10470 10468 10467 10465 10462 10458 10455 10452 10449 10447 10445 10443 10441 10439 10438 10435 10432 10429 10427 10426 10425 10426 10427 10424 10419 10416 10415 10415 10414 10413 10411 10410 10409 10408 10408 10408 10407 10406 10405 10405 10404 10404 10404 10405 10405 10405 10405 10406 10407 10409 10411 10413 10416 10418 10420 10423 10426 10429 10433 10437 10441 10445 10449 10453 10456 10460 10463 10467 10471 10474 10478 10482 10485 10489 10493 10496 10499 10503 10506 10509 10512 10515 10518
10462 10461 10459 10458 10456 10454 10452 10449 10445 10442 10439 10436 10435 10434 10432 10432 10431 10428 10424 10422 10420 10419 10418 10417 10417 10416 10413 10411 10409 10408 10407 10407 10407 10406 10405 10404 10403 10403 10402 10402 10401 10400 10400 10400 10400 10399 10400 10400 10400 10400 10402 10404 10404 10405 10407 10409 10411 10413 10416 10420 10424 10428 10431 10435 10439 10443 10447 10450 10454 10457 10461 10465 10468 10472 10476 10479 10483 10487 10490 10494 10497 10501 10504 10507 10509
10452 10451 10450 10448 10446 10444 10441 10438 10436 10433 10430 10428 10426 10425 10424 10423 10423 10422 10418 10415 10412 10412 10412 10411 10410 10408 10407 10406 10404 10403 10402 10402 10401 10401 10401 10400 10399 10399 10398 10397 10397 10396 10395 10395 10395 10395 10395 10395 10394 10395 10397 10398 10398 10398 10400 10401 10403 10405 10408 10411 10414 10418 10421 10425 10429 10433 10437 10440 10444 10448 10451 10455 10458 10462 10466 10469 10473 10477 10480 10484 10488 10491 10494 10497 10500